Location: Cointrin
(46.2167°N, 6.1167°E)
Time: 18:01:43
(UTC+00:00)

Cosmos 968 Rocket - Visible Passes

Search period start: 01 October 2023 00:00
Search period end: 11 October 2023 00:00
Orbit: 740 x 768 km, 74.0° (Epoch: 01 October)

Date Brightness Start Highest point End Pass type
(mag) Time Alt. Az. Time Alt. Az. Time Alt. Az.
07 Oct 6.4 04:51:46 10° NNE 04:53:06 11° NE 04:54:27 10° ENE visible
09 Oct 5.9 05:09:16 10° N 05:13:09 21° NE 05:17:00 10° ESE visible
10 Oct 6.2 04:29:02 10° NNE 04:31:28 13° NE 04:33:53 10° ENE visible
